Regional Weather Roundup
Issued by NWS

Home | Current Version | Previous Version | Graphics & Text | Print | Product List | Glossary On
Versions: 1 2 3 4 5 6 7 8 9 10 11 12 13 14 15 16 17 18 19 20 21 22 23 24 25 26 27 28 29 30 31 32 33 34 35 36 37 38 39 40 41 42 43 44 45 46 47 48 49 50
000
ASUS43 KOAX 172102
RWRNE

WEATHER ROUNDUP FOR NEBRASKA
NATIONAL WEATHER SERVICE OMAHA NE
300 PM CST FRI NOV 17 2017

NOTES: SATELLITE DATA IS BEING USED TO AUGMENT CLOUD COVER ABOVE
       12000 FEET.
       "FAIR" INDICATES FEW OR NO CLOUDS BELOW 12,000 FEET WITH NO
       SIGNIFICANT WEATHER AND/OR OBSTRUCTIONS TO VISIBILITY.


NEZ001>004-019>022-054>056-172200-
NEBRASKA PANHANDLE

CITY           SKY/WX    TMP DP  RH WIND       PRES   REMARKS
SCOTTSBLUFF    LGT RAIN  47  36  65 SW5       29.63F
ALLIANCE       LGT RAIN  43  37  79 N14       29.63R
CHADRON        CLOUDY    42  36  79 SE6       29.60F
GORDON         CLOUDY    43  28  57 CALM      29.65R
KIMBALL        LGT RAIN  45  43  91 NW18G25   29.64R
SIDNEY         PTSUNNY   55  32  41 N16       29.61R
$$

NEZ057>060-069>072-079>082-172200-
SOUTHWEST NEBRASKA

CITY           SKY/WX    TMP DP  RH WIND       PRES   REMARKS
NORTH PLATTE   SUNNY     57  32  38 NE15      29.55F
LEXINGTON      SUNNY     55  33  42 NE13      29.55S
MCCOOK         LGT RAIN  60  34  37 NE12      29.54F
OGALLALA       CLOUDY    58  31  35 NE9       29.58R
$$

NEZ005>010-023>029-035>040-094-172200-
NORTH CENTRAL NEBRASKA

CITY           SKY/WX    TMP DP  RH WIND       PRES   REMARKS
VALENTINE      CLOUDY    46  33  60 N7        29.66R
AINSWORTH      CLOUDY    46  36  68 NE12      29.62S
BROKEN BOW     CLOUDY    51  33  50 N15       29.55S
O`NEILL        CLOUDY    49  33  53 N14G21    29.58R
ORD            MOSUNNY   50  34  54 N15G22    29.55F
THEDFORD       MOSUNNY   50  33  50 NE12G18   29.59F
$$

NEZ041-046>049-061>064-073>077-083>087-172200-
SOUTH CENTRAL NEBRASKA

CITY           SKY/WX    TMP DP  RH WIND       PRES   REMARKS
GRAND ISLAND   SUNNY     54  35  48 N17       29.53F
AURORA         SUNNY     57  38  47 N20       29.52S
HASTINGS       SUNNY     57  37  47 N15G25    29.52R
HEBRON         SUNNY     68  48  48 CALM      29.47S
HOLDREGE       SUNNY     56  36  46 N12       29.53S
KEARNEY        SUNNY     54  34  46 N17       29.54
YORK           SUNNY     57  48  72 N17       29.51F
$$

NEZ011>018-030>034-042>045-172200-
NORTHEAST NEBRASKA

CITY           SKY/WX    TMP DP  RH WIND       PRES   REMARKS
NORFOLK        MOSUNNY   51  35  54 N14       29.51F
ALBION         CLOUDY    51  35  56 N13       29.54F
BLAIR          CLOUDY    61  53  76 NW6       29.50F
COLUMBUS       SUNNY     54  37  52 NW12      29.54R
FREMONT        CLOUDY    60  49  66 NW10      29.51S
TEKAMAH        CLOUDY    60  48  64 N8        29.50F
WAYNE          SUNNY     49  33  53 N12       29.54F
$$

NEZ050>053-065>068-078-088>093-172200-
SOUTHEAST NEBRASKA

CITY           SKY/WX    TMP DP  RH WIND       PRES   REMARKS
LINCOLN        CLOUDY    64  52  64 N8        29.50F
OMAHA EPPLEY   CLOUDY    60  53  77 CALM      29.50F HAZE
BEATRICE       SUNNY     70  52  52 SW3       29.46F
FALLS CITY     PTSUNNY   67  57  70 S10       29.47F
NEBRASKA CITY  CLOUDY    65  58  78 SE3       29.49S
PLATTSMOUTH    CLOUDY    63  57  81 SE5       29.49F
$$

NEZ044-045-051>053-067-172200-
OMAHA AREA

CITY           SKY/WX    TMP DP  RH WIND       PRES   REMARKS
OMAHA EPPLEY   CLOUDY    60  53  77 CALM      29.50F HAZE
BLAIR          CLOUDY    61  53  76 NW6       29.50F
FREMONT        CLOUDY    60  49  66 NW10      29.51S
OFFUTT AFB     CLOUDY    62  55  76 CALM      29.49F
PLATTSMOUTH    CLOUDY    63  57  81 SE5       29.49F
WAHOO          CLOUDY    62  49  63 N13       29.50S
$$




USA.gov is the U.S. government's official web portal to all federal, state and local government web resources and services.